Volver al catálogo

STARLINK-32105

ActivoComunicacionesVLEO
NORAD 59689·PAYLOAD·🇺🇸 United States

Lanzado May 8, 2024 desde Cape Canaveral Space Force Station

Loading…

Próximos Pases (próximas 24 horas)

TLE

ActualizadoSource: CelesTrak SupGP

Época: Sep 14, 2026, 21:01 UTC

1 59689C 24086H   26257.87618056  .00043271  00000+0  15677-2 0  2571
2 59689  43.0001  71.2088 0001291 273.6340 274.5958 15.27549130    19

Sigue STARLINK-32105 en tiempo real con AllMySat

Download on the App Store